CAPE
9 6 5 4 4 4 3 2 1 1 1 1 0 0 0 0 0 0 0 0 0 0 0 0 0 0 0 0 0 0 0 0 0 0 0 0 0 0 0 0 0 0 0
7 5 5 4 4 3 1 1 1 1 0 0 0 0 0 0 0 0 0 0 0 0 0 0 0 0 0 0 0 0 0 0 0 0 0 0 0 0 0 0 0 0 0
5 5 3 2 2 2 1 0 1 0 0 0 0 0 0 0 0 0 0 0 0 0 0 0 0 0 0 0 0 0 0 0 0 0 0 0 0 0 0 0 0 0 0
4 4 4 3 1 2 1 0 0 0 0 0 0 0 0 0 0 0 0 0 0 0 0 0 0 0 0 0 0 0 0 0 0 0 0 0 0 0 0 0 0 0 0
2 3 2 2 1 1 0 0 0 0 0 0 0 0 0 0 0 0 0 0 0 0 0 0 0 0 0 0 0 0 0 0 0 0 0 0 0 0 0 0 0 0 0
3 3 2 1 0 1 0 0 0 0 0 0 0 0 0 0 0 0 0 0 0 0 0 0 0 0 0 0 0 0 1 0 0 0 0 0 0 0 0 0 0 0 0
1 1 1 2 1 0 0 0 0 0 0 0 0 0 0 0 0 0 0 0 0 0 0 0 0 0 0 0 0 0 0 0 0 0 0 0 0 0 0 0 0 0 0
2 1 2 0 0 0 0 0 0 0 0 0 0 0 0 0 0 0 0 0 0 0 0 0 0 0 0 0 0 0 0 0 0 0 0 0 0 0 0 0 0 0 0
1 0 0 0 0 0 0 0 0 0 0 0 0 0 0 0 0 0 0 0 0 0 0 0 0 0 0 6 0 0 0 0 0 0 0 0 0 0 0 0 0 0 0
0 0 0 0 0 0 0 0 0 0 0 0 0 0 0 0 0 0 0 0 0 0 0 0 0 0 1 3 0 0 0 0 0 0 0 0 0 0 0 0 0 0 0
0 0 0 0 0 0 0 0 0 0 0 0 0 0 0 0 0 0 0 0 0 0 0 0 0 0 0 2 1 0 0 1 0 0 0 0 0 0 0 0 0 0 0
0 0 0 0 0 0 0 0 0 0 0 0 0 0 0 0 0 0 0 0 0 0 0 0 0 0 2 3 1 0 1 0 0 0 0 0 0 0 0 0 0 0 0
0 0 0 0 0 0 0 0 0 0 0 0 0 0 0 0 0 0 0 1 1 0 0 0 0 0 0 0 0 0 0 0 0 0 0 0 0 0 0 0 0 0 0
0 0 0 0 0 0 0 0 0 0 0 0 0 0 0 0 0 0 0 0 0 0 0 0 0 0 0 0 0 0 0 0 0 0 0 0 0 0 0 0 0 0 0
0 0 0 0 0 0 0 0 0 0 0 0 0 0 0 0 0 0 1 0 0 0 0 0 0 0 0 0 0 0 0 0 0 0 0 0 0 0 0 0 0 0 0
0 0 0 0 0 0 0 0 0 0 0 0 0 0 0 0 0 2 1 2 2 1 0 0 0 0 0 0 0 0 0 0 0 0 0 0 0 0 0 0 0 0 0
0 0 0 0 0 0 0 0 0 0 0 0 0 0 0 0 0 2 1 0 0 0 0 0 0 0 0 0 0 0 0 0 0 0 0 0 0 0 0 0 0 0 0
0 0 0 0 0 0 0 0 0 0 0 0 0 0 0 0 0 0 0 0 0 0 0 0 0 0 0 0 0 0 0 0 0 0 0 0 0 0 0 0 0 0 0
0 0 0 0 0 0 0 0 0 0 0 0 0 0 0 0 0 0 0 0 0 0 0 0 0 0 0 0 0 0 0 0 0 0 0 0 0 0 0 0 0 0 0
0 0 0 0 0 0 0 0 0 0 0 0 0 0 0 0 0 0 0 0 0 0 0 0 0 0 0 0 0 0 0 0 0 0 0 0 0 0 0 0 0 0 0
0 0 0 0 0 0 0 0 0 0 0 0 0 0 0 0 0 0 0 0 0 0 0 0 0 0 0 0 0 0 0 0 0 0 0 0 0 0 0 0 0 0 0
0 0 0 0 0 0 0 0 0 0 0 0 0 0 0 0 0 0 0 0 0 0 0 0 0 0 0 0 0 0 0 0 0 0 0 0 0 0 0 0 0 0 0
0 0 0 0 0 0 0 0 0 0 0 0 0 0 0 0 0 0 0 0 0 0 0 0 0 0 0 0 0 0 0 0 0 0 0 0 0 0 0 0 0 0 0
0 0 0 0 0 0 0 0 0 0 0 0 0 0 0 0 0 0 0 0 0 0 0 0 0 0 0 0 0 0 0 0 0 0 0 0 0 0 0 0 0 0 0
0 0 0 0 0 0 0 0 0 0 0 0 0 0 0 0 0 0 0 0 0 0 0 0 0 0 0 0 0 0 0 0 0 0 0 0 0 0 0 0 0 0 0
0 0 0 0 0 0 0 0 0 0 0 0 0 0 0 0 0 0 0 0 0 0 0 0 0 0 0 0 0 0 0 0 0 0 0 0 0 0 0 0 0 0 0
CIN
-0 -0 -0 -0 -0 -0 -0 -0 -0 -0 -0 -0 -0 -0 -0 -0 -0 -0 -0 -0 -0 -0 -0 -0 -0 -0 -0 -0 -0 -0 -0 -0 -0 -0 -0 -0 -0 -0 -0 -0 -0 -0 -0
-0 -0 -0 -0 -0 -0 -0 -0 -0 -0 -0 -0 -0 -0 -0 -0 -0 -0 -0 -0 -0 -0 -0 -0 -0 -0 -0 -0 -0 -0 -0 -0 -0 -0 -0 -0 -0 -0 -0 -0 -0 -0 -0
-0 -0 -0 -0 -0 -0 -0 -0 -0 -0 -0 -0 -0 -0 -0 -0 -0 -0 -0 -0 -0 -0 -0 -0 -0 -0 -0 -0 -0 -0 -0 -0 -0 -0 -0 -0 -0 -0 -0 -0 -0 -0 -0
-0 -0 -0 -0 -0 -0 -0 -0 -0 -0 -0 -0 -0 -0 -0 -0 -0 -0 -0 -0 -0 -0 -0 -0 -0 -0 -0 -0 -0 -0 -0 -0 -0 -0 -0 -0 -0 -0 -0 -0 -0 -0 -0
-0 -0 -0 -0 -0 -0 -0 -0 -0 -0 -0 -0 -0 -0 -0 -0 -0 -0 -0 -0 -0 -0 -0 -0 -0 -0 -0 -0 -0 -0 -0 -0 -0 -0 -0 -0 -0 -0 -0 -0 -0 -0 -0
-0 -0 -0 -0 -0 -0 -0 -0 -0 -0 -0 -0 -0 -0 -0 -0 -0 -0 -0 -0 -0 -0 -0 -0 -0 -0 -0 -0 -0 -0 -0 -0 -0 -0 -0 -0 -0 -0 -0 -0 -0 -0 -0
-0 -0 -0 -0 -0 -0 -0 -0 -0 -0 -0 -0 -0 -0 -0 -0 -0 -0 -0 -0 -0 -0 -0 -0 -0 -0 -0 -0 -0 -0 -0 -0 -0 -0 -0 -0 -0 -0 -0 -0 -0 -0 -0
-0 -0 -0 -0 -0 -0 -0 -0 -0 -0 -0 -0 -0 -0 -0 -0 -0 -0 -0 -0 -0 -0 -0 -0 -0 -0 -0 -0 -0 -0 -0 -0 -0 -0 -0 -0 -0 -0 -1 -0 -0 -0 -0
-0 -0 -0 -0 -0 -0 -0 -0 -0 -0 -0 -0 -0 -0 -0 -0 -0 -0 -0 -0 -0 -0 -0 -0 -0 -0 -0 -0 -0 -0 -0 -0 -0 -0 -0 -0 -0 -0 -0 -0 -0 -0 -0
-0 -0 -0 -0 -0 -0 -0 -0 -0 -0 -0 -0 -0 -0 -0 -0 -0 -0 -0 -0 -0 -0 -0 -0 -0 -0 -0 -0 -0 -0 -0 -0 -0 -0 -0 -0 -0 -0 -0 -0 -0 -0 -0
-0 -0 -0 -0 -0 -0 -0 -0 -0 -0 -0 -0 -0 -0 -0 -0 -0 -0 -0 -0 -0 -0 -0 -0 -0 -0 -0 -0 -1 -0 -0 -1 -0 -0 -0 -0 -0 -0 -0 -0 -0 -0 -0
-0 -0 -0 -0 -0 -0 -0 -0 -0 -0 -0 -0 -0 -0 -0 -0 -0 -0 -0 -0 -0 -0 -0 -0 -0 -0 -0 -0 -0 -0 -0 -0 -0 -0 -0 -0 -0 -0 -0 -0 -0 -0 -0
-0 -0 -0 -0 -0 -0 -0 -0 -0 -0 -0 -0 -0 -0 -0 -0 -0 -0 -0 -0 -0 -0 -0 -0 -0 -0 -0 -0 -0 -0 -0 -0 -0 -0 -0 -0 -0 -0 -0 -0 -0 -0 -0
-0 -0 -0 -0 -0 -0 -0 -0 -0 -0 -0 -0 -0 -0 -0 -0 -0 -0 -0 -0 -0 -0 -0 -0 -0 -0 -0 -0 -0 -0 -0 -0 -0 -0 -0 -0 -0 -0 -0 -0 -0 -0 -0
-0 -0 -0 -0 -0 -0 -0 -0 -0 -0 -0 -0 -0 -0 -0 -0 -0 -0 -0 -0 -0 -0 -0 -0 -0 -0 -0 -0 -0 -0 -0 -0 -0 -0 -0 -0 -0 -0 -0 -0 -0 -0 -0
-0 -0 -0 -0 -0 -0 -0 -0 -0 -0 -0 -0 -0 -0 -0 -0 -0 -0 -0 -0 -0 -0 -0 -0 -0 -0 -0 -0 -0 -0 -0 -0 -0 -0 -0 -0 -0 -0 -0 -0 -0 -0 -0
-0 -0 -0 -0 -0 -0 -0 -0 -0 -0 -0 -0 -0 -0 -0 -0 -0 -0 -0 -0 -0 -0 -0 -0 -0 -0 -0 -0 -0 -0 -0 -0 -0 -0 -0 -0 -0 -0 -0 -0 -0 -0 -0
-0 -0 -0 -0 -0 -0 -0 -0 -0 -0 -0 -0 -0 -0 -0 -0 -0 -0 -0 -0 -0 -0 -0 -0 -0 -0 -0 -0 -0 -0 -0 -0 -0 -0 -0 -0 -0 -0 -0 -0 -0 -0 -0
-0 -0 -0 -0 -0 -0 -0 -0 -0 -0 -0 -0 -0 -0 -0 -0 -0 -0 -0 -0 -0 -0 -0 -0 -0 -0 -0 -0 -0 -0 -0 -0 -0 -0 -0 -0 -0 -0 -0 -0 -0 -0 -0
-0 -0 -0 -0 -0 -0 -0 -0 -0 -0 -0 -0 -0 -0 -0 -0 -0 -0 -0 -0 -0 -0 -0 -0 -0 -0 -0 -0 -0 -0 -0 -0 -0 -0 -0 -0 -0 -0 -0 -0 -0 -0 -0
-0 -0 -0 -0 -0 -0 -0 -0 -0 -0 -0 -0 -0 -0 -0 -0 -0 -0 -0 -0 -0 -0 -0 -0 -0 -0 -0 -0 -0 -0 -0 -0 -0 -0 -0 -0 -0 -0 -0 -0 -0 -0 -0
-0 -0 -0 -0 -0 -0 -0 -0 -0 -0 -0 -0 -0 -0 -0 -0 -0 -0 -0 -0 -0 -0 -0 -0 -0 -0 -0 -0 -0 -0 -0 -0 -0 -0 -0 -0 -0 -0 -0 -0 -0 -0 -0
-0 -0 -0 -0 -0 -0 -0 -0 -0 -0 -0 -0 -0 -0 -0 -0 -0 -0 -0 -0 -0 -0 -0 -0 -0 -0 -0 -0 -0 -0 -0 -0 -0 -0 -0 -0 -0 -0 -0 -0 -0 -0 -0
-0 -0 -0 -0 -0 -0 -0 -0 -0 -0 -0 -0 -0 -0 -0 -0 -0 -0 -0 -0 -0 -0 -0 -0 -0 -0 -0 -0 -0 -0 -0 -0 -0 -0 -0 -0 -0 -0 -0 -0 -0 -0 -0
-0 -0 -0 -0 -0 -0 -0 -0 -0 -0 -0 -0 -0 -0 -0 -0 -0 -0 -0 -0 -0 -0 -0 -0 -0 -0 -0 -0 -0 -0 -0 -0 -0 -0 -0 -0 -0 -0 -0 -0 -0 -0 -0
-0 -0 -0 -0 -0 -0 -0 -0 -0 -0 -0 -0 -0 -0 -0 -0 -0 -0 -0 -0 -0 -0 -0 -0 -0 -0 -0 -0 -0 -0 -0 -0 -0 -0 -0 -0 -0 -0 -0 -0 -0 -0 -0
Wind_Speed
17 15 13 12 10 7 5 4 4 1 2 4 7 6 7 8 10 11 14 15 17 19 20 21 23 24 25 26 28 28 30 32 36 37 38 40 41 41 41 41 42 43 42
16 13 11 9 8 6 5 4 2 1 4 4 6 6 8 10 11 13 14 17 18 20 20 22 24 25 26 28 30 32 33 34 37 43 41 42 41 42 43 45 44 43 47
16 13 9 6 6 6 6 4 1 3 4 5 7 8 10 11 13 15 16 18 19 20 22 23 25 26 28 30 33 35 36 37 39 41 43 40 42 44 45 44 46 47 47
12 9 8 5 6 5 3 3 5 6 7 8 8 10 12 13 15 16 17 18 20 21 22 24 25 28 30 32 34 36 37 39 39 40 41 43 44 44 45 49 51 48 51
12 9 6 6 8 6 7 8 9 8 8 9 11 12 14 15 16 17 18 20 21 22 24 25 26 28 29 31 35 36 37 38 38 39 42 43 45 48 49 49 51 52 50
10 9 8 8 9 9 11 11 9 8 11 12 13 13 15 16 17 18 20 21 22 24 26 27 27 29 30 32 34 35 37 35 38 41 42 46 46 47 47 49 52 53 53
11 10 9 11 12 12 10 11 11 12 13 13 14 15 15 16 18 19 21 21 23 25 27 29 30 30 31 33 35 36 32 34 36 40 43 43 46 46 47 50 48 46 47
11 13 14 12 10 10 11 14 15 15 14 14 14 16 17 17 18 19 20 23 25 27 28 29 30 31 32 34 35 33 33 35 37 38 39 40 41 42 40 40 42 44 42
14 14 12 14 14 15 19 17 15 14 14 15 16 17 18 18 19 20 23 25 26 28 27 27 29 30 31 34 34 35 37 38 37 38 39 40 39 37 36 38 42 43 46
14 24 21 24 22 18 16 15 14 15 16 16 17 18 18 19 22 24 25 25 27 28 29 29 28 28 30 32 36 37 41 41 40 41 40 38 36 34 33 33 36 41 42
27 25 20 18 17 16 15 15 16 16 16 16 17 19 20 21 23 24 26 27 30 29 29 30 30 30 32 34 35 37 39 41 42 41 40 38 35 33 32 31 33 35 37
20 19 18 17 17 16 16 17 16 16 16 18 19 21 21 22 25 26 27 28 27 29 31 31 31 33 33 35 36 37 39 40 41 42 42 40 37 35 34 33 32 32 30
21 20 19 18 18 17 17 16 16 16 18 18 19 21 23 25 25 25 26 28 29 29 30 32 31 33 35 36 37 39 38 40 42 43 40 37 34 34 34 33 32 32 31
20 19 19 18 17 17 18 17 17 18 19 19 21 22 23 24 25 27 29 30 29 31 32 31 33 36 37 38 39 39 39 39 40 39 37 34 34 34 34 33 35 37 38
20 18 17 17 16 17 18 18 19 20 19 20 20 21 22 24 27 29 29 30 31 31 32 35 38 40 41 41 41 41 40 39 39 36 35 35 35 34 34 34 35 37 39
18 17 17 16 16 17 18 19 20 20 22 22 22 22 24 26 27 29 29 30 32 34 36 40 41 42 44 45 45 44 42 40 38 35 35 35 35 35 35 35 35 37 40
17 17 17 17 16 16 16 17 19 21 22 22 24 26 27 27 27 28 30 33 34 35 39 40 42 43 44 44 44 43 43 40 37 36 35 34 33 33 35 36 36 37 39
18 18 17 17 16 16 16 17 18 19 21 23 25 26 27 27 28 30 33 35 38 38 39 41 43 43 44 44 44 43 42 39 37 36 34 32 32 32 34 34 34 37 38
18 18 17 17 17 17 18 18 19 20 22 23 23 24 27 29 30 32 34 36 39 40 41 41 41 42 44 43 43 42 40 39 37 35 32 30 30 30 30 30 32 34 35
17 17 17 17 17 18 18 18 19 20 22 23 25 27 29 31 34 36 36 37 38 39 41 42 42 42 43 44 43 41 39 37 35 32 29 27 25 25 27 29 31 34 36
17 17 17 17 17 17 18 19 20 21 22 24 26 27 29 32 35 36 37 38 39 40 41 42 43 43 42 43 41 39 37 35 31 28 25 22 21 23 25 27 30 32 34
16 16 16 16 17 17 18 19 20 22 24 26 27 29 31 33 35 36 38 39 40 39 40 41 43 42 41 42 40 38 35 32 27 23 20 17 20 22 25 28 30 31 34
15 15 16 16 16 17 18 20 21 23 25 27 29 31 33 35 36 38 39 40 41 42 42 42 42 42 40 38 36 34 31 27 23 19 17 18 21 24 26 28 30 32 34
14 15 15 15 16 18 19 21 22 24 26 28 30 32 34 36 37 39 40 41 42 42 42 41 41 41 41 38 35 31 27 22 18 17 17 19 21 24 26 28 29 31 31
14 14 15 15 16 18 20 22 23 25 26 28 31 33 35 37 39 40 41 42 42 43 42 42 41 41 40 37 34 30 23 19 17 16 18 20 22 24 25 27 28 29 29
14 14 14 15 17 19 21 22 24 26 27 30 32 34 36 38 39 40 41 42 43 42 43 43 42 41 38 36 31 26 23 22 21 19 19 21 23 25 26 27 28 28 27
Wind_Direction
226 222 231 235 235 228 237 212 213 195 312 326 352 18 27 24 22 16 11 13 13 15 7 5 3 0 358 356 354 351 346 342 335 335 335 336 336 337 338 339 339 337 337
219 212 218 212 212 208 197 202 190 325 328 12 29 37 38 31 21 17 16 18 12 9 8 4 360 358 355 353 351 346 343 341 337 333 335 336 336 338 337 336 336 337 333
201 198 194 202 179 187 172 174 315 19 46 40 44 37 33 25 21 23 18 15 11 10 5 1 357 355 352 350 348 344 343 341 339 336 335 338 337 336 335 336 335 333 333
188 175 174 157 141 154 157 118 84 75 68 59 48 37 32 30 26 20 16 12 9 5 3 -0 357 354 350 347 346 344 342 340 340 338 338 337 336 337 336 334 332 333 333
180 171 154 131 113 101 98 94 88 75 62 54 50 40 34 24 19 15 11 5 4 2 0 358 355 353 352 349 345 344 343 341 341 340 337 337 336 336 335 335 333 334 334
172 146 129 120 96 103 96 91 82 64 60 55 47 34 25 21 17 11 7 4 2 360 356 355 354 351 349 347 347 345 344 346 343 340 338 336 336 336 336 335 334 334 334
137 125 120 101 101 99 92 81 72 67 63 50 38 30 24 19 15 11 7 4 1 357 356 352 349 349 349 348 347 346 347 346 344 341 339 338 336 337 336 335 336 337 336
106 100 100 100 97 84 74 73 75 71 56 41 31 23 19 16 12 10 6 1 358 355 353 351 350 349 349 348 346 348 347 345 344 343 341 339 338 339 339 339 339 338 339
96 95 92 89 83 83 87 82 69 56 42 30 24 20 16 14 12 6 1 357 355 352 353 354 352 350 351 350 350 347 344 342 343 342 341 340 340 341 342 342 340 341 340
86 89 86 94 92 83 75 64 50 40 32 28 23 23 21 12 6 2 360 357 353 352 353 353 353 352 350 350 348 345 342 342 342 342 342 343 344 344 346 346 344 342 342
90 89 81 78 76 68 59 49 40 37 37 32 25 18 12 9 5 3 359 356 354 353 353 352 353 353 351 348 346 346 343 343 343 342 342 343 344 346 347 348 347 345 343
77 75 72 67 62 58 54 49 47 40 28 19 15 11 11 8 2 0 359 359 358 355 352 354 353 351 349 348 347 345 344 345 344 343 342 342 343 345 346 346 345 344 343
80 76 71 68 66 61 51 40 30 30 21 18 16 11 6 4 3 4 4 0 357 355 356 353 352 352 350 348 347 346 347 345 343 342 342 343 344 345 345 345 346 345 344
78 73 71 67 60 48 41 41 32 27 23 18 13 9 8 8 6 3 360 359 0 357 356 354 352 350 349 348 347 347 346 345 343 342 342 342 343 344 345 346 345 346 345
78 72 67 64 60 47 39 35 30 27 24 19 16 15 13 9 4 2 3 2 1 358 355 352 351 350 348 347 347 346 346 345 343 342 342 341 342 344 344 346 345 346 345
75 76 72 64 54 47 42 38 40 35 28 24 24 20 13 8 5 4 3 0 357 355 353 351 350 349 346 345 345 344 344 343 343 342 340 341 341 342 343 344 345 345 344
78 77 73 70 65 57 51 45 37 30 30 26 19 13 11 7 6 4 1 358 356 355 352 351 349 348 346 346 345 344 342 342 342 340 339 339 340 341 342 343 344 345 344
83 84 80 70 64 60 52 43 36 28 19 15 13 11 9 7 5 2 359 358 355 354 353 351 348 348 347 345 344 343 342 341 340 339 338 338 339 340 342 343 344 344 344
81 75 71 68 64 55 46 39 31 23 17 13 11 10 7 5 3 1 359 356 354 353 352 350 349 348 346 345 344 343 342 340 339 338 338 337 338 340 341 342 343 342 342
76 74 69 63 54 46 41 34 26 20 15 12 9 6 4 2 360 358 356 355 353 351 350 349 349 347 346 345 344 343 342 340 339 338 337 336 336 338 337 339 341 342 343
66 63 61 54 47 40 35 26 21 17 13 10 7 5 3 0 358 356 354 353 351 350 349 348 347 346 345 344 343 342 341 340 339 338 337 334 334 333 336 337 338 340 341
60 57 53 49 43 35 28 23 18 15 11 7 5 4 2 359 356 354 353 351 350 349 348 347 346 345 344 343 342 340 339 339 339 338 334 330 334 334 336 337 338 340 342
54 51 47 42 36 29 23 17 14 10 7 5 3 1 358 356 354 352 351 350 349 348 347 346 345 343 343 341 340 338 336 335 334 335 330 332 334 335 338 337 339 340 342
44 43 40 35 28 20 15 12 9 6 4 2 0 358 356 354 353 351 350 349 348 348 347 347 345 343 342 342 341 339 337 333 331 327 327 328 329 334 336 337 339 340 341
37 35 31 26 18 12 8 7 4 3 2 0 358 356 354 353 351 350 349 349 348 348 348 347 346 345 344 343 342 340 338 331 326 323 329 330 329 331 333 335 337 339 339
30 31 28 22 13 7 5 4 2 0 359 358 356 354 353 351 350 350 349 349 349 349 348 347 347 346 345 345 345 345 345 344 343 339 334 332 332 333 335 335 336 338 339